SONATE
1 44400U 19038Q   25073.59887696  .00104154  00000-0  10978-2 0  9990
2 44400  97.7062  90.8903 0008710 188.2419 171.8697 15.63872343315867
Taurus 1
1 44530U 19059C   25073.85162969  .00017192  00000-0  33020-2 0  9993
2 44530  98.5947 209.2973 0009350 295.2183  64.8048 14.63709083291248
Duchifat 3
1 44854U 19089C   25073.68162021  .00067029  00000-0  17958-2 0  9991
2 44854  36.9469 184.1494 0005633 186.1147 173.9538 15.36912314289527
TO-108
1 44881U 19093C   25073.86784791  .00002758  00000-0  32685-3 0  9993
2 44881  97.7983 151.3265 0014652 151.5811 208.6206 14.85268475283202
FloripaSat 1
1 44885U 19093G   25073.83532938  .00014164  00000-0  12388-2 0  9999
2 44885  97.8171 161.3488 0011820 136.1972 224.0188 14.96800396283763
RS-44
1 44909U 19096E   25073.61791358  .00000029  00000-0  62934-4 0  9997
2 44909  82.5174 285.0729 0218149 138.7196 223.0630 12.79739123243568
UPMSat 2
1 46276U 20061E   25073.47017111  .00076004  00000-0  10848-2 0  9993
2 46276  97.2557 145.6749 0001592 168.2377 191.8916 15.56022557251864
SALSAT
1 46495U 20068K   25073.49899305  .00015575  00000-0  71051-3 0  9998
2 46495  97.8532  47.6624 0014341 101.7427 258.5417 15.20631884245289
CubeSX-Sirius-HSE
1 47951U 21022V   25073.88400728  .00138633  00000-0  17903-2 0  9993
2 47951  97.4295 342.2697 0004062 218.7507 141.3458 15.58486419220190
CubeSX-HSE
1 47952U 21022W   25073.85415156  .00137656  00000-0  17376-2 0  9990
2 47952  97.4299 342.4416 0004366 208.5798 151.5219 15.59096080220204
KSU-Cubesat
1 47954U 21022Y   25073.70720368  .01031107  51386-3  22695-2 0  9991
2 47954  97.4187 347.5018 0007345 148.2127 211.9594 15.98139463220238
GRBAlpha
1 47959U 21022AD  25073.81949246  .00130985  00000-0  16701-2 0  9994
2 47959  97.4285 342.5518 0004109 217.1756 142.9216 15.58852593219022
Orbicraft-Zorkiy
1 47960U 21022AE  25073.83901541  .00275969  00000-0  17786-2 0  9990
2 47960  97.4250 346.2139 0004808 159.3485 200.7975 15.75353658219929
TUBIN
1 48900U 21059X   25073.84910297  .00061334  00000-0  10617-2 0  9999
2 48900  97.6691 236.6606 0004820 205.2477 154.8539 15.50716509206553
LEDSAT
1 49069U 21073D   25073.86266500  .00071575  00000-0  13649-2 0  9991
2 49069  97.3980 152.5574 0011071  38.9886 321.2160 15.47851625197968
CUTE
1 49263U 21088D   25073.76831934  .00024233  00000-0  55478-3 0  9997
2 49263  97.4591 147.7282 0009551 190.1428 169.9628 15.42741158191029
TeikyoSat 4
1 49396U 21102B   25073.59119474  .00005688  00000-0  38289-3 0  9994
2 49396  97.4226 115.1338 0014134  74.6558 285.6231 15.07013415183447
Z-Sat
1 49399U 21102E   25073.83527651  .00009203  00000-0  51926-3 0  9994
2 49399  97.3927 117.9589 0019660  49.1832 311.1100 15.13205440183859
KOSEN 1
1 49402U 21102H   25073.87753077  .00015055  00000-0  73132-3 0  9991
2 49402  97.3833 120.7960 0016841  27.8228 332.3904 15.18416459184122
HO-113
1 50466U 21131B   25073.88027749  .00001562  00000-0  50347-3 0  9997
2 50466  98.5098 163.6781 0004754  49.7540 310.4063 14.40614517168963
IRIS-A
1 51044U 22002BN  25073.17132224  .00146221  00000-0  15401-2 0  9998
2 51044  97.3372 149.1155 0003860 160.1933 199.9476 15.63789702176088
Foresail-1
1 52766U 22057AL  25073.34266950  .00126273  00000-0  13887-2 0  9994
2 52766  97.6008 216.7816 0007121 241.3529 118.7013 15.62724253156141
SNUGLITE 2
1 52899U 22065F   25073.63378679  .00003734  00000-0  74066-3 0  9997
2 52899  98.1527 216.5425 0007870  34.1070 326.0636 14.62791197143774
IO-117
1 53106U 22080B   25051.21822557 -.00000003  00000-0  00000+0 0  9995
2 53106  70.1434 106.3440 0008542  48.0089 312.1297  6.42557744 61200
UmKA 1 (RS40S)
1 57172U 23091G   25073.86779557  .00012150  00000-0  67635-3 0  9997
2 57172  97.5703 129.7356 0013353 272.9627  87.0076 15.13712391 94350
CubeBel-2 (EU11S)
1 57175U 23091K   25073.83602413  .00019151  00000-0  97625-3 0  9993
2 57175  97.5703 130.3802 0011530 282.9519  77.0426 15.16749459 94393
VERONIKA
1 58261U 23174F   25073.83673546  .00098825  00000-0  18023-2 0  9996
2 58261  97.4229 156.2206 0005652 349.5916  10.5217 15.49074852 75164
KAFASAT
1 58317U 23174BP  25073.86858785  .00502054  00000-0  26073-2 0  9999
2 58317  97.4073 160.5168 0007509 277.5055  82.5359 15.79635007 75473
ENSO
1 58470U 23185J   25073.84853838  .00063892  00000-0  13551-2 0  9992
2 58470  97.3838 146.8256 0007514  40.1227 320.0575 15.44814354 71592
EIRSAT-1
1 58472U 23185L   25073.85222663  .00089439  00000-0  15924-2 0  9992
2 58472  97.3828 147.6939 0006035  38.7317 321.4366 15.49795694 71650
SONATE-2
1 59112U 24043Q   25073.60306287  .00031564  00000-0  10384-2 0  9997
2 59112  97.5004 203.3532 0011906  66.4535 293.7955 15.31391641 57005
MO-122
1 60209U 24125G   25073.83016333  .00030967  00000-0  10038-2 0  9994
2 60209  97.2909 286.5937 0021932  88.8471 271.5283 15.31701073 38656
GRBBeta
1 60237U 24128C   25073.33264139  .00013020  00000-0  99947-3 0  9990
2 60237  61.9941  23.5165 0043859  38.1566 322.2615 15.01331542 37095
Curium One
1 60242U 24128H   25073.55914553  .00019817  00000-0  14483-2 0  9993
2 60242  61.9840  22.1251 0044073  33.5700 326.8169 15.02929841 37144
ROBUSTA-3A
1 60243U 24128J   25073.20481029  .00021576  00000-0  15946-2 0  9993
2 60243  61.9908  23.9202 0042264  31.2814 329.0778 15.02529988 37088
CatSat
1 60246U 24125J   25073.53670871  .00018031  00000-0  64336-3 0  9994
2 60246  97.2693 286.4080 0045853  45.6024 314.8955 15.27910896 36686
HYPERVIEW-1G (RS66S)
1 61772U 24199AP  25073.88148279  .00033785  00000-0  11422-2 0  9990
2 61772  97.3682 303.1235 0016097 138.2790 221.9681 15.30436508 63676
AO-123
1 61781U 24199AY  25073.85249887  .00015415  00000-0  59030-3 0  9992
2 61781  97.3688 302.7202 0017454 140.5696 219.6817 15.26492167 63640
ZIMSAT 2
1 61783U 24199BA  25073.88555306  .00050821  00000-0  15978-2 0  9995
2 61783  97.3674 303.2635 0016954 137.6109 222.6447 15.32664310 66838
POEM 4 (BGS ARPIT)
1 62461U 24253C   25073.76437063  .00360915  62805-4  88517-3 0  9999
2 62461  55.2136 261.0689 0003949 136.8993 223.2372 15.95646463 11708
HADES-R (SO-124)
1 62690U 25009CK  25073.50011956  .00056281  00000-0  25504-2 0  9993
2 62690  97.4165 155.1081 0001991  56.4263 303.7162 15.20641035  8876
HYDRA-T
1 62692U 25009CM  25073.16740988  .00060134  00000-0  27155-2 0  9997
2 62692  97.4162 154.7880 0001626  52.2776 307.8607 15.20741055  8822
